| time (UTC) | temp F | wind direction | speed MPH | gust MPH | rain 1hr in | rain 24hr in | rain mn in | humidity % | barometer mb |
| 20260507230657 | 65 | 225 | 7.0 | 9.0 | 0.00 | 0.00 | 0.00 | 53 | 1021.2 |
| 20260507230155 | 64 | 215 | 3.0 | 6.0 | 0.00 | 0.00 | 0.00 | 53 | 1020.9 |
| 20260507225654 | 64 | 199 | 4.0 | 7.0 | 0.00 | 0.00 | 0.00 | 55 | 1021.1 |
| 20260507225151 | 63 | 243 | 3.0 | 7.0 | 0.00 | 0.00 | 0.00 | 55 | 1021.2 |
| 20260507224646 | 63 | 210 | 4.0 | 6.0 | 0.00 | 0.00 | 0.00 | 54 | 1021.2 |
| 20260507224143 | 65 | 139 | 4.0 | 7.0 | 0.00 | 0.00 | 0.00 | 52 | 1021.1 |
| 20260507223639 | 65 | 259 | 3.0 | 3.0 | 0.00 | 0.00 | 0.00 | 52 | 1021.4 |
| 20260507223137 | 64 | 190 | 2.0 | 5.0 | 0.00 | 0.00 | 0.00 | 53 | 1021.4 |
| 20260507222634 | 63 | 204 | 6.0 | 9.0 | 0.00 | 0.00 | 0.00 | 55 | 1021.4 |
| 20260507222130 | 64 | 221 | 3.0 | 7.0 | 0.00 | 0.00 | 0.00 | 55 | 1021.6 |
| 20260507221626 | 64 | 195 | 4.0 | 10.0 | 0.00 | 0.00 | 0.00 | 54 | 1021.5 |
| 20260507221123 | 63 | 233 | 4.0 | 5.0 | 0.00 | 0.00 | 0.00 | 56 | 1021.5 |
| 20260507220620 | 63 | 229 | 7.0 | 9.0 | 0.00 | 0.00 | 0.00 | 55 | 1021.6 |
| 20260507220118 | 62 | 184 | 5.0 | 7.0 | 0.00 | 0.00 | 0.00 | 55 | 1021.8 |
| 20260507215613 | 63 | 247 | 6.0 | 10.0 | 0.00 | 0.00 | 0.00 | 54 | 1021.5 |
| 20260507215112 | 62 | 249 | 6.0 | 9.0 | 0.00 | 0.00 | 0.00 | 55 | 1021.6 |
| 20260507214608 | 64 | 231 | 5.0 | 7.0 | 0.00 | 0.00 | 0.00 | 53 | 1021.6 |
| 20260507214104 | 63 | 186 | 5.0 | 6.0 | 0.00 | 0.00 | 0.00 | 55 | 1021.9 |
| 20260507213601 | 63 | 216 | 3.0 | 8.0 | 0.00 | 0.00 | 0.00 | 56 | 1021.8 |
| 20260507213058 | 63 | 219 | 3.0 | 8.0 | 0.00 | 0.00 | 0.00 | 56 | 1021.6 |
| 20260507212554 | 63 | 185 | 5.0 | 8.0 | 0.00 | 0.00 | 0.00 | 55 | 1021.7 |
| 20260507212051 | 63 | 205 | 3.0 | 7.0 | 0.00 | 0.00 | 0.00 | 56 | 1021.8 |
| 20260507211547 | 63 | 194 | 7.0 | 8.0 | 0.00 | 0.00 | 0.00 | 56 | 1022.0 |
| 20260507211043 | 63 | 196 | 8.0 | 9.0 | 0.00 | 0.00 | 0.00 | 56 | 1022.0 |
| 20260507210541 | 62 | 147 | 3.0 | 9.0 | 0.00 | 0.00 | 0.00 | 56 | 1022.0 |
| 20260507210038 | 62 | 218 | 5.0 | 7.0 | 0.00 | 0.00 | 0.00 | 56 | 1022.0 |
| 20260507205534 | 62 | 164 | 7.0 | 8.0 | 0.00 | 0.00 | 0.00 | 56 | 1022.3 |
| 20260507205031 | 62 | 223 | 3.0 | 5.0 | 0.00 | 0.00 | 0.00 | 57 | 1022.4 |
| 20260507204527 | 62 | 175 | 5.0 | 7.0 | 0.00 | 0.00 | 0.00 | 56 | 1022.4 |
| 20260507204025 | 62 | 181 | 4.0 | 6.0 | 0.00 | 0.00 | 0.00 | 57 | 1022.4 |
| 20260507203523 | 62 | 214 | 4.0 | 6.0 | 0.00 | 0.00 | 0.00 | 57 | 1022.5 |
| 20260507203020 | 62 | 213 | 3.0 | 7.0 | 0.00 | 0.00 | 0.00 | 56 | 1022.5 |
| 20260507202515 | 62 | 220 | 3.0 | 5.0 | 0.00 | 0.00 | 0.00 | 57 | 1022.6 |
| 20260507202012 | 61 | 248 | 5.0 | 6.0 | 0.00 | 0.00 | 0.00 | 59 | 1022.5 |
| 20260507201508 | 61 | 214 | 4.0 | 10.0 | 0.00 | 0.00 | 0.00 | 58 | 1022.8 |
| 20260507201004 | 61 | 225 | 3.0 | 8.0 | 0.00 | 0.00 | 0.00 | 59 | 1022.7 |
| 20260507200459 | 60 | 209 | 3.0 | 5.0 | 0.00 | 0.00 | 0.00 | 59 | 1022.7 |
| 20260507195955 | 60 | 162 | 3.0 | 6.0 | 0.00 | 0.00 | 0.00 | 59 | 1022.8 |
| 20260507195453 | 60 | 210 | 3.0 | 5.0 | 0.00 | 0.00 | 0.00 | 59 | 1022.7 |
| 20260507194950 | 60 | 239 | 3.0 | 6.0 | 0.00 | 0.00 | 0.00 | 59 | 1022.8 |
| 20260507194447 | 60 | 191 | 6.0 | 8.0 | 0.00 | 0.00 | 0.00 | 57 | 1022.8 |
| 20260507193942 | 60 | 222 | 3.0 | 6.0 | 0.00 | 0.00 | 0.00 | 58 | 1022.8 |
| 20260507193440 | 59 | 192 | 3.0 | 5.0 | 0.00 | 0.00 | 0.00 | 63 | 1022.8 |
| 20260507192937 | 58 | 178 | 4.0 | 5.0 | 0.00 | 0.00 | 0.00 | 63 | 1023.0 |
| 20260507192432 | 58 | 192 | 2.0 | 5.0 | 0.00 | 0.00 | 0.00 | 64 | 1022.8 |
| 20260507191930 | 58 | 202 | 3.0 | 5.0 | 0.00 | 0.00 | 0.00 | 65 | 1023.1 |
| 20260507191426 | 59 | 202 | 3.0 | 3.0 | 0.00 | 0.00 | 0.00 | 64 | 1023.0 |
| 20260507190922 | 58 | 206 | 3.0 | 5.0 | 0.00 | 0.00 | 0.00 | 66 | 1022.9 |
| 20260507190420 | 58 | 150 | 5.0 | 7.0 | 0.00 | 0.00 | 0.00 | 66 | 1023.1 |
| 20260507185919 | 58 | 283 | 6.0 | 7.0 | 0.00 | 0.00 | 0.00 | 64 | 1023.2 |
| 20260507185416 | 58 | 195 | 3.0 | 5.0 | 0.00 | 0.00 | 0.00 | 65 | 1023.0 |
| 20260507184913 | 58 | 172 | 3.0 | 6.0 | 0.00 | 0.00 | 0.00 | 65 | 1023.3 |
| 20260507184410 | 59 | 174 | 5.0 | 6.0 | 0.00 | 0.00 | 0.00 | 65 | 1023.2 |
| 20260507183908 | 60 | 192 | 4.0 | 6.0 | 0.00 | 0.00 | 0.00 | 61 | 1023.2 |
| 20260507183404 | 60 | 195 | 3.0 | 8.0 | 0.00 | 0.00 | 0.00 | 62 | 1023.3 |
| 20260507182902 | 59 | 152 | 1.0 | 6.0 | 0.00 | 0.00 | 0.00 | 63 | 1023.3 |
| 20260507182357 | 58 | 171 | 2.0 | 5.0 | 0.00 | 0.00 | 0.00 | 68 | 1023.2 |
| 20260507181854 | 59 | 237 | 3.0 | 6.0 | 0.00 | 0.00 | 0.00 | 65 | 1023.4 |
| 20260507181350 | 58 | 159 | 2.0 | 8.0 | 0.00 | 0.00 | 0.00 | 66 | 1023.3 |
| 20260507180847 | 57 | 127 | 3.0 | 5.0 | 0.00 | 0.00 | 0.00 | 68 | 1023.4 |
| 20260507180344 | 57 | 148 | 7.0 | 10.0 | 0.00 | 0.00 | 0.00 | 68 | 1023.4 |
| 20260507175839 | 56 | 189 | 4.0 | 6.0 | 0.00 | 0.00 | 0.00 | 70 | 1023.6 |
| 20260507175337 | 56 | 246 | 5.0 | 7.0 | 0.00 | 0.00 | 0.00 | 70 | 1023.6 |
| 20260507174834 | 56 | 209 | 3.0 | 3.0 | 0.00 | 0.00 | 0.00 | 71 | 1023.7 |
| 20260507174331 | 55 | 199 | 2.0 | 3.0 | 0.00 | 0.00 | 0.00 | 72 | 1023.5 |
| 20260507173829 | 55 | 249 | 4.0 | 6.0 | 0.00 | 0.00 | 0.00 | 71 | 1023.6 |
| 20260507173326 | 55 | 207 | 3.0 | 6.0 | 0.00 | 0.00 | 0.00 | 72 | 1023.4 |
| 20260507172822 | 56 | 190 | 2.0 | 6.0 | 0.00 | 0.00 | 0.00 | 71 | 1023.5 |
| 20260507172319 | 56 | 190 | 4.0 | 7.0 | 0.00 | 0.00 | 0.00 | 70 | 1023.3 |
| 20260507171814 | 57 | 171 | 5.0 | 11.0 | 0.00 | 0.00 | 0.00 | 69 | 1023.4 |
| 20260507171312 | 56 | 187 | 3.0 | 5.0 | 0.00 | 0.00 | 0.00 | 70 | 1023.5 |
| 20260507170809 | 56 | 206 | 3.0 | 5.0 | 0.00 | 0.00 | 0.00 | 72 | 1023.4 |
| 20260507170305 | 56 | 169 | 1.0 | 7.0 | 0.00 | 0.00 | 0.00 | 71 | 1023.5 |
| 20260507165801 | 56 | 256 | 3.0 | 6.0 | 0.00 | 0.00 | 0.00 | 72 | 1023.3 |
| 20260507165257 | 55 | 156 | 1.0 | 9.0 | 0.00 | 0.00 | 0.00 | 71 | 1023.4 |
| 20260507164753 | 55 | 222 | 3.0 | 3.0 | 0.00 | 0.00 | 0.00 | 72 | 1023.5 |
| 20260507164251 | 55 | 178 | 3.0 | 6.0 | 0.00 | 0.00 | 0.00 | 73 | 1023.6 |
| 20260507163748 | 55 | 189 | 3.0 | 6.0 | 0.00 | 0.00 | 0.00 | 73 | 1023.6 |
| 20260507163246 | 55 | 220 | 5.0 | 10.0 | 0.00 | 0.00 | 0.00 | 72 | 1023.6 |
| 20260507162741 | 54 | 172 | 5.0 | 7.0 | 0.00 | 0.00 | 0.00 | 74 | 1023.5 |
| 20260507162237 | 54 | 246 | 7.0 | 11.0 | 0.00 | 0.00 | 0.00 | 74 | 1023.4 |
| 20260507161734 | 54 | 241 | 3.0 | 5.0 | 0.00 | 0.00 | 0.00 | 74 | 1023.6 |
| 20260507161231 | 55 | 223 | 3.0 | 6.0 | 0.00 | 0.00 | 0.00 | 73 | 1023.7 |
| 20260507160726 | 54 | 210 | 4.0 | 6.0 | 0.00 | 0.00 | 0.00 | 75 | 1023.8 |
| 20260507160223 | 54 | 139 | 6.0 | 7.0 | 0.00 | 0.00 | 0.00 | 74 | 1023.6 |
| 20260507155719 | 54 | 232 | 3.0 | 9.0 | 0.00 | 0.00 | 0.00 | 75 | 1023.8 |
| 20260507155215 | 53 | 205 | 6.0 | 9.0 | 0.00 | 0.00 | 0.00 | 75 | 1023.7 |
| 20260507154712 | 53 | 214 | 4.0 | 6.0 | 0.00 | 0.00 | 0.00 | 77 | 1023.8 |
| 20260507154210 | 53 | 131 | 5.0 | 7.0 | 0.00 | 0.00 | 0.00 | 77 | 1023.6 |
| 20260507153707 | 52 | 174 | 4.0 | 6.0 | 0.00 | 0.00 | 0.00 | 79 | 1023.7 |
| 20260507153203 | 52 | 201 | 3.0 | 7.0 | 0.00 | 0.00 | 0.00 | 78 | 1024.0 |
| 20260507152659 | 52 | 212 | 4.0 | 6.0 | 0.00 | 0.00 | 0.00 | 78 | 1023.8 |
| 20260507152155 | 52 | 133 | 2.0 | 6.0 | 0.00 | 0.00 | 0.00 | 78 | 1023.7 |
| 20260507151651 | 52 | 134 | 5.0 | 6.0 | 0.00 | 0.00 | 0.00 | 78 | 1023.8 |
| 20260507151148 | 52 | 220 | 5.0 | 8.0 | 0.00 | 0.00 | 0.00 | 78 | 1023.8 |
| 20260507150645 | 53 | 212 | 4.0 | 6.0 | 0.00 | 0.00 | 0.00 | 77 | 1023.7 |
| 20260507150142 | 53 | 184 | 2.0 | 6.0 | 0.00 | 0.00 | 0.00 | 77 | 1023.6 |
| 20260507145637 | 53 | 229 | 3.0 | 5.0 | 0.00 | 0.00 | 0.00 | 78 | 1023.7 |
| 20260507145135 | 53 | 192 | 3.0 | 7.0 | 0.00 | 0.00 | 0.00 | 78 | 1023.9 |
| 20260507144631 | 52 | 195 | 3.0 | 7.0 | 0.00 | 0.00 | 0.00 | 78 | 1023.8 |
| 20260507144130 | 52 | 184 | 3.0 | 6.0 | 0.00 | 0.00 | 0.00 | 79 | 1023.7 |
| 20260507143626 | 52 | 206 | 3.0 | 6.0 | 0.00 | 0.00 | 0.00 | 79 | 1023.7 |
| 20260507143123 | 52 | 228 | 5.0 | 6.0 | 0.00 | 0.00 | 0.00 | 79 | 1023.6 |
| 20260507142618 | 52 | 217 | 4.0 | 6.0 | 0.00 | 0.00 | 0.00 | 80 | 1023.9 |
| 20260507142116 | 52 | 160 | 3.0 | 3.0 | 0.00 | 0.00 | 0.00 | 80 | 1023.7 |
| 20260507141612 | 52 | 230 | 2.0 | 3.0 | 0.00 | 0.00 | 0.00 | 79 | 1023.8 |
| 20260507141109 | 52 | 156 | 1.0 | 1.0 | 0.00 | 0.00 | 0.00 | 80 | 1023.7 |
| 20260507140605 | 52 | 175 | 1.0 | 2.0 | 0.00 | 0.00 | 0.00 | 80 | 1023.7 |
| 20260507135600 | 52 | 232 | 3.0 | 3.0 | 0.00 | 0.00 | 0.00 | 80 | 1023.6 |
| 20260507135057 | 52 | 162 | 2.0 | 5.0 | 0.00 | 0.00 | 0.00 | 80 | 1023.6 |
| 20260507134553 | 52 | 164 | 0.0 | 1.0 | 0.00 | 0.00 | 0.00 | 81 | 1023.6 |
| 20260507134050 | 52 | 178 | 4.0 | 5.0 | 0.00 | 0.00 | 0.00 | 81 | 1023.7 |
| 20260507133545 | 52 | 175 | 1.0 | 3.0 | 0.00 | 0.00 | 0.00 | 82 | 1023.3 |
| 20260507133044 | 52 | 179 | 1.0 | 2.0 | 0.00 | 0.00 | 0.00 | 82 | 1023.4 |
| 20260507132540 | 52 | 184 | 1.0 | 2.0 | 0.00 | 0.00 | 0.00 | 83 | 1023.4 |
| 20260507132036 | 51 | 171 | 1.0 | 2.0 | 0.00 | 0.00 | 0.00 | 82 | 1023.3 |
| 20260507131533 | 51 | 162 | 2.0 | 2.0 | 0.00 | 0.00 | 0.00 | 82 | 1023.4 |
| 20260507131031 | 51 | 188 | 2.0 | 5.0 | 0.00 | 0.00 | 0.00 | 82 | 1023.5 |
| 20260507130527 | 51 | 160 | 0.0 | 0.0 | 0.00 | 0.00 | 0.00 | 82 | 1023.4 |
| 20260507130026 | 51 | 167 | 1.0 | 2.0 | 0.00 | 0.00 | 0.00 | 82 | 1023.5 |
| 20260507125524 | 51 | 160 | 0.0 | 1.0 | 0.00 | 0.00 | 0.00 | 83 | 1023.4 |
| 20260507125021 | 51 | 161 | 0.0 | 2.0 | 0.00 | 0.00 | 0.00 | 83 | 1023.3 |
| 20260507124517 | 51 | 162 | 0.0 | 0.0 | 0.00 | 0.00 | 0.00 | 83 | 1023.6 |
| 20260507124015 | 51 | 146 | 0.0 | 1.0 | 0.00 | 0.00 | 0.00 | 84 | 1023.5 |
| 20260507123513 | 51 | 146 | 0.0 | 0.0 | 0.00 | 0.00 | 0.00 | 83 | 1023.5 |
| 20260507123010 | 51 | 167 | 0.0 | 1.0 | 0.00 | 0.00 | 0.00 | 82 | 1023.6 |
| 20260507122504 | 51 | 191 | 1.0 | 2.0 | 0.00 | 0.00 | 0.00 | 83 | 1023.8 |
| 20260507122001 | 51 | 163 | 0.0 | 1.0 | 0.00 | 0.00 | 0.00 | 83 | 1023.4 |
| 20260507121456 | 51 | 155 | 0.0 | 1.0 | 0.00 | 0.00 | 0.00 | 83 | 1023.5 |
| 20260507120953 | 51 | 97 | 1.0 | 1.0 | 0.00 | 0.00 | 0.00 | 83 | 1023.6 |
| 20260507120449 | 51 | 151 | 0.0 | 0.0 | 0.00 | 0.00 | 0.00 | 84 | 1023.5 |
| 20260507115946 | 51 | 151 | 0.0 | 1.0 | 0.00 | 0.00 | 0.00 | 84 | 1023.8 |
| 20260507115442 | 51 | 163 | 0.0 | 1.0 | 0.00 | 0.00 | 0.00 | 84 | 1023.6 |
| 20260507114938 | 51 | 193 | 1.0 | 3.0 | 0.00 | 0.00 | 0.00 | 86 | 1023.7 |
| 20260507114434 | 51 | 175 | 0.0 | 0.0 | 0.00 | 0.00 | 0.00 | 87 | 1023.9 |
| 20260507113932 | 51 | 152 | 0.0 | 0.0 | 0.00 | 0.00 | 0.00 | 88 | 1023.8 |
| 20260507113429 | 51 | 151 | 0.0 | 0.0 | 0.00 | 0.00 | 0.00 | 88 | 1023.8 |
| 20260507112926 | 51 | 151 | 0.0 | 0.0 | 0.00 | 0.00 | 0.00 | 88 | 1023.9 |
| 20260507112424 | 51 | 155 | 0.0 | 0.0 | 0.00 | 0.00 | 0.00 | 88 | 1024.0 |
| 20260507111921 | 51 | 156 | 0.0 | 0.0 | 0.00 | 0.00 | 0.00 | 89 | 1024.1 |
| 20260507111418 | 51 | 155 | 0.0 | 0.0 | 0.00 | 0.00 | 0.00 | 89 | 1024.0 |
| 20260507110914 | 51 | 155 | 0.0 | 0.0 | 0.00 | 0.00 | 0.00 | 89 | 1023.9 |
| 20260507110410 | 51 | 155 | 0.0 | 0.0 | 0.00 | 0.00 | 0.00 | 89 | 1024.0 |
| 20260507105907 | 51 | 155 | 0.0 | 0.0 | 0.00 | 0.00 | 0.00 | 89 | 1024.0 |
| 20260507105404 | 51 | 155 | 0.0 | 0.0 | 0.00 | 0.00 | 0.00 | 89 | 1024.1 |
| 20260507104901 | 51 | 155 | 0.0 | 0.0 | 0.00 | 0.00 | 0.00 | 89 | 1023.9 |
| 20260507104357 | 51 | 155 | 0.0 | 0.0 | 0.00 | 0.00 | 0.00 | 89 | 1023.9 |
| 20260507103853 | 51 | 155 | 0.0 | 0.0 | 0.00 | 0.00 | 0.00 | 90 | 1024.1 |
| 20260507103350 | 51 | 152 | 0.0 | 0.0 | 0.00 | 0.00 | 0.00 | 90 | 1024.1 |
| 20260507102846 | 51 | 153 | 0.0 | 0.0 | 0.00 | 0.00 | 0.00 | 90 | 1024.2 |
| 20260507102343 | 51 | 155 | 0.0 | 0.0 | 0.00 | 0.00 | 0.00 | 90 | 1024.0 |
| 20260507101839 | 51 | 155 | 0.0 | 0.0 | 0.00 | 0.00 | 0.00 | 90 | 1024.0 |
| 20260507101339 | 51 | 155 | 0.0 | 0.0 | 0.00 | 0.00 | 0.00 | 90 | 1024.3 |
| 20260507100837 | 51 | 155 | 0.0 | 1.0 | 0.00 | 0.00 | 0.00 | 90 | 1024.2 |
| 20260507100334 | 51 | 155 | 0.0 | 0.0 | 0.00 | 0.00 | 0.00 | 90 | 1024.2 |
| 20260507095832 | 51 | 156 | 0.0 | 0.0 | 0.00 | 0.00 | 0.00 | 90 | 1024.0 |
| 20260507095328 | 51 | 155 | 0.0 | 1.0 | 0.00 | 0.00 | 0.00 | 90 | 1024.1 |
| 20260507094826 | 51 | 155 | 1.0 | 1.0 | 0.00 | 0.00 | 0.00 | 90 | 1023.9 |
| 20260507094322 | 51 | 144 | 0.0 | 1.0 | 0.00 | 0.00 | 0.00 | 90 | 1024.0 |
| 20260507093819 | 51 | 155 | 0.0 | 0.0 | 0.00 | 0.00 | 0.00 | 90 | 1024.0 |
| 20260507093318 | 51 | 155 | 0.0 | 1.0 | 0.00 | 0.00 | 0.00 | 90 | 1024.0 |
| 20260507092815 | 51 | 156 | 0.0 | 1.0 | 0.00 | 0.00 | 0.00 | 90 | 1024.0 |
| 20260507092312 | 51 | 148 | 1.0 | 1.0 | 0.00 | 0.00 | 0.00 | 90 | 1024.0 |
| 20260507091808 | 51 | 150 | 0.0 | 1.0 | 0.00 | 0.00 | 0.00 | 89 | 1023.9 |
| 20260507091305 | 51 | 145 | 0.0 | 0.0 | 0.00 | 0.00 | 0.00 | 89 | 1024.1 |
| 20260507090805 | 51 | 146 | 0.0 | 1.0 | 0.00 | 0.00 | 0.00 | 89 | 1023.9 |
| 20260507090302 | 51 | 155 | 0.0 | 0.0 | 0.00 | 0.00 | 0.00 | 88 | 1024.0 |
| 20260507085759 | 51 | 150 | 0.0 | 0.0 | 0.00 | 0.00 | 0.00 | 87 | 1023.9 |
| 20260507085255 | 52 | 157 | 0.0 | 0.0 | 0.00 | 0.00 | 0.00 | 86 | 1023.9 |
| 20260507084753 | 52 | 240 | 2.0 | 2.0 | 0.00 | 0.00 | 0.00 | 86 | 1023.9 |
| 20260507084249 | 52 | 163 | 0.0 | 1.0 | 0.00 | 0.00 | 0.00 | 86 | 1023.9 |
| 20260507083747 | 52 | 156 | 1.0 | 3.0 | 0.00 | 0.00 | 0.00 | 85 | 1023.6 |
| 20260507083243 | 52 | 167 | 0.0 | 1.0 | 0.00 | 0.00 | 0.00 | 85 | 1023.9 |
| 20260507082739 | 52 | 204 | 2.0 | 2.0 | 0.00 | 0.00 | 0.00 | 85 | 1024.0 |
| 20260507082235 | 52 | 165 | 0.0 | 1.0 | 0.00 | 0.00 | 0.00 | 85 | 1024.1 |
| 20260507081732 | 52 | 152 | 1.0 | 1.0 | 0.00 | 0.00 | 0.00 | 85 | 1024.0 |
| 20260507081228 | 52 | 156 | 0.0 | 2.0 | 0.00 | 0.00 | 0.00 | 85 | 1023.9 |
| 20260507080725 | 52 | 189 | 1.0 | 2.0 | 0.00 | 0.00 | 0.00 | 85 | 1024.0 |
| 20260507080222 | 52 | 208 | 3.0 | 5.0 | 0.00 | 0.00 | 0.00 | 85 | 1023.9 |
| 20260507075717 | 52 | 159 | 0.0 | 2.0 | 0.00 | 0.00 | 0.00 | 85 | 1023.9 |
| 20260507075213 | 52 | 205 | 1.0 | 3.0 | 0.00 | 0.00 | 0.00 | 85 | 1024.0 |
| 20260507074709 | 52 | 176 | 1.0 | 1.0 | 0.00 | 0.00 | 0.00 | 86 | 1024.1 |
| 20260507074208 | 52 | 173 | 1.0 | 2.0 | 0.00 | 0.00 | 0.00 | 86 | 1023.8 |
| 20260507073704 | 52 | 179 | 1.0 | 2.0 | 0.00 | 0.00 | 0.00 | 86 | 1023.9 |
| 20260507073200 | 53 | 202 | 4.0 | 8.0 | 0.00 | 0.00 | 0.00 | 86 | 1023.9 |
| 20260507072658 | 53 | 164 | 3.0 | 5.0 | 0.00 | 0.00 | 0.00 | 86 | 1023.9 |
| 20260507072155 | 53 | 210 | 3.0 | 5.0 | 0.00 | 0.00 | 0.00 | 86 | 1024.0 |
| 20260507071653 | 53 | 181 | 1.0 | 3.0 | 0.00 | 0.00 | 0.00 | 87 | 1024.0 |
| 20260507071149 | 53 | 166 | 2.0 | 2.0 | 0.00 | 0.00 | 0.00 | 87 | 1023.9 |
| 20260507070646 | 52 | 151 | 2.0 | 3.0 | 0.00 | 0.00 | 0.00 | 87 | 1024.0 |
| 20260507070143 | 52 | 214 | 2.0 | 5.0 | 0.00 | 0.00 | 0.00 | 87 | 1023.8 |
| 20260507065639 | 52 | 199 | 3.0 | 6.0 | 0.00 | 0.00 | 0.00 | 87 | 1023.9 |
| 20260507065136 | 52 | 175 | 3.0 | 7.0 | 0.00 | 0.00 | 0.00 | 88 | 1024.2 |
| 20260507064634 | 52 | 226 | 6.0 | 8.0 | 0.00 | 0.00 | 0.00 | 89 | 1024.1 |
| 20260507064133 | 52 | 163 | 1.0 | 2.0 | 0.00 | 0.00 | 0.00 | 89 | 1023.9 |
| 20260507063630 | 52 | 180 | 1.0 | 2.0 | 0.00 | 0.00 | 0.00 | 90 | 1023.9 |
| 20260507063127 | 52 | 177 | 0.0 | 1.0 | 0.00 | 0.00 | 0.00 | 90 | 1024.0 |
| 20260507062623 | 52 | 180 | 1.0 | 2.0 | 0.00 | 0.00 | 0.00 | 90 | 1023.9 |
| 20260507062121 | 52 | 184 | 1.0 | 2.0 | 0.00 | 0.00 | 0.00 | 90 | 1024.1 |
| 20260507061619 | 52 | 197 | 1.0 | 3.0 | 0.00 | 0.00 | 0.00 | 90 | 1024.0 |
| 20260507061117 | 52 | 151 | 2.0 | 3.0 | 0.00 | 0.00 | 0.00 | 89 | 1024.1 |
| 20260507060614 | 53 | 191 | 1.0 | 5.0 | 0.00 | 0.00 | 0.00 | 89 | 1024.4 |
| 20260507060111 | 53 | 216 | 3.0 | 6.0 | 0.00 | 0.00 | 0.00 | 89 | 1024.1 |
| 20260507055606 | 53 | 202 | 3.0 | 6.0 | 0.00 | 0.00 | 0.00 | 89 | 1024.0 |
| 20260507055102 | 53 | 185 | 1.0 | 7.0 | 0.00 | 0.00 | 0.00 | 90 | 1024.1 |
| 20260507054558 | 53 | 159 | 1.0 | 2.0 | 0.00 | 0.00 | 0.00 | 89 | 1024.1 |
| 20260507054055 | 53 | 186 | 1.0 | 3.0 | 0.00 | 0.00 | 0.00 | 89 | 1024.0 |
| 20260507053553 | 53 | 160 | 0.0 | 5.0 | 0.00 | 0.00 | 0.00 | 89 | 1024.1 |
| 20260507053052 | 53 | 164 | 5.0 | 6.0 | 0.00 | 0.00 | 0.00 | 89 | 1024.1 |
| 20260507052549 | 53 | 228 | 3.0 | 5.0 | 0.00 | 0.00 | 0.00 | 89 | 1024.2 |
| 20260507052046 | 53 | 207 | 1.0 | 3.0 | 0.00 | 0.00 | 0.00 | 88 | 1024.1 |
| 20260507051543 | 53 | 177 | 9.0 | 10.0 | 0.00 | 0.00 | 0.00 | 88 | 1024.0 |
| 20260507051040 | 53 | 224 | 4.0 | 6.0 | 0.00 | 0.00 | 0.00 | 88 | 1023.9 |
| 20260507050536 | 53 | 166 | 2.0 | 7.0 | 0.00 | 0.00 | 0.00 | 87 | 1024.1 |
| 20260507050033 | 53 | 179 | 2.0 | 2.0 | 0.00 | 0.00 | 0.00 | 87 | 1024.2 |
| 20260507045530 | 53 | 163 | 2.0 | 6.0 | 0.00 | 0.00 | 0.00 | 86 | 1024.3 |
| 20260507045027 | 54 | 235 | 4.0 | 6.0 | 0.00 | 0.00 | 0.00 | 85 | 1024.2 |
| 20260507044524 | 54 | 166 | 0.0 | 2.0 | 0.00 | 0.00 | 0.00 | 85 | 1024.0 |
| 20260507044020 | 54 | 218 | 4.0 | 5.0 | 0.00 | 0.00 | 0.00 | 84 | 1024.0 |
| 20260507043516 | 54 | 184 | 4.0 | 7.0 | 0.00 | 0.00 | 0.00 | 84 | 1024.1 |
| 20260507043014 | 54 | 196 | 2.0 | 2.0 | 0.00 | 0.00 | 0.00 | 83 | 1024.1 |
| 20260507042509 | 55 | 215 | 3.0 | 3.0 | 0.00 | 0.00 | 0.00 | 82 | 1023.8 |
| 20260507042005 | 55 | 187 | 1.0 | 7.0 | 0.00 | 0.00 | 0.00 | 82 | 1023.8 |
| 20260507041502 | 55 | 190 | 2.0 | 8.0 | 0.00 | 0.00 | 0.00 | 82 | 1023.8 |
| 20260507040959 | 55 | 172 | 2.0 | 3.0 | 0.00 | 0.00 | 0.00 | 81 | 1023.8 |
| 20260507040455 | 55 | 167 | 0.0 | 1.0 | 0.00 | 0.00 | 0.00 | 82 | 1023.9 |
| 20260507035951 | 55 | 161 | 0.0 | 2.0 | 0.00 | 0.00 | 0.00 | 82 | 1023.7 |
| 20260507035448 | 55 | 193 | 2.0 | 3.0 | 0.00 | 0.00 | 0.00 | 82 | 1023.7 |
| 20260507034945 | 55 | 190 | 3.0 | 3.0 | 0.00 | 0.00 | 0.00 | 82 | 1023.4 |
| 20260507034441 | 55 | 171 | 3.0 | 3.0 | 0.00 | 0.00 | 0.00 | 82 | 1023.6 |
| 20260507033940 | 55 | 183 | 2.0 | 2.0 | 0.00 | 0.00 | 0.00 | 82 | 1023.6 |
| 20260507033437 | 55 | 228 | 2.0 | 3.0 | 0.00 | 0.00 | 0.00 | 82 | 1023.6 |
| 20260507032934 | 55 | 201 | 3.0 | 3.0 | 0.00 | 0.00 | 0.00 | 81 | 1023.6 |
| 20260507032431 | 55 | 168 | 2.0 | 2.0 | 0.00 | 0.00 | 0.00 | 82 | 1023.4 |
| 20260507031927 | 55 | 159 | 2.0 | 6.0 | 0.00 | 0.00 | 0.00 | 81 | 1023.7 |
| 20260507031426 | 55 | 148 | 3.0 | 3.0 | 0.00 | 0.00 | 0.00 | 81 | 1023.4 |
| 20260507030920 | 55 | 182 | 2.0 | 5.0 | 0.00 | 0.00 | 0.00 | 81 | 1023.5 |
| 20260507030418 | 55 | 181 | 2.0 | 3.0 | 0.00 | 0.00 | 0.00 | 81 | 1023.5 |
| 20260507025914 | 55 | 157 | 3.0 | 3.0 | 0.00 | 0.00 | 0.00 | 80 | 1023.3 |
| 20260507025412 | 55 | 148 | 2.0 | 5.0 | 0.00 | 0.00 | 0.00 | 81 | 1023.3 |
| 20260507024910 | 55 | 175 | 5.0 | 6.0 | 0.00 | 0.00 | 0.00 | 81 | 1023.3 |
| 20260507024407 | 56 | 163 | 2.0 | 5.0 | 0.00 | 0.00 | 0.00 | 80 | 1023.5 |
| 20260507023902 | 56 | 201 | 3.0 | 3.0 | 0.00 | 0.00 | 0.00 | 80 | 1023.3 |
| 20260507023359 | 56 | 161 | 3.0 | 3.0 | 0.00 | 0.00 | 0.00 | 80 | 1023.0 |
| 20260507022857 | 56 | 136 | 2.0 | 3.0 | 0.00 | 0.00 | 0.00 | 80 | 1023.1 |
| 20260507022353 | 56 | 173 | 2.0 | 7.0 | 0.00 | 0.00 | 0.00 | 79 | 1023.0 |
| 20260507021849 | 56 | 153 | 1.0 | 5.0 | 0.00 | 0.00 | 0.00 | 79 | 1023.2 |
| 20260507021345 | 56 | 201 | 3.0 | 6.0 | 0.00 | 0.00 | 0.00 | 78 | 1023.1 |
| 20260507020843 | 56 | 160 | 4.0 | 6.0 | 0.00 | 0.00 | 0.00 | 78 | 1023.0 |
| 20260507020339 | 57 | 196 | 3.0 | 3.0 | 0.00 | 0.00 | 0.00 | 77 | 1023.1 |
| 20260507015836 | 57 | 165 | 1.0 | 3.0 | 0.00 | 0.00 | 0.00 | 78 | 1023.4 |
| 20260507015334 | 57 | 191 | 3.0 | 5.0 | 0.00 | 0.00 | 0.00 | 77 | 1023.1 |
| 20260507014831 | 57 | 168 | 3.0 | 5.0 | 0.00 | 0.00 | 0.00 | 77 | 1023.1 |
| 20260507014327 | 57 | 189 | 3.0 | 6.0 | 0.00 | 0.00 | 0.00 | 77 | 1023.1 |
| 20260507013824 | 57 | 264 | 3.0 | 7.0 | 0.00 | 0.00 | 0.00 | 77 | 1023.1 |
| 20260507013321 | 56 | 201 | 3.0 | 7.0 | 0.00 | 0.00 | 0.00 | 79 | 1023.1 |
| 20260507012819 | 56 | 136 | 2.0 | 2.0 | 0.00 | 0.00 | 0.00 | 79 | 1023.2 |
| 20260507012314 | 56 | 158 | 4.0 | 5.0 | 0.00 | 0.00 | 0.00 | 79 | 1023.2 |
| 20260507011811 | 56 | 192 | 4.0 | 6.0 | 0.00 | 0.00 | 0.00 | 78 | 1023.2 |
| 20260507011308 | 57 | 148 | 3.0 | 7.0 | 0.00 | 0.00 | 0.00 | 78 | 1023.5 |
| 20260507010808 | 57 | 216 | 2.0 | 7.0 | 0.00 | 0.00 | 0.00 | 77 | 1023.1 |
| 20260507010304 | 57 | 222 | 3.0 | 5.0 | 0.00 | 0.00 | 0.00 | 77 | 1023.3 |
| 20260507005801 | 57 | 238 | 4.0 | 7.0 | 0.00 | 0.00 | 0.00 | 76 | 1023.2 |
| 20260507005258 | 57 | 216 | 3.0 | 3.0 | 0.00 | 0.00 | 0.00 | 76 | 1023.6 |
| 20260507004754 | 57 | 170 | 3.0 | 8.0 | 0.00 | 0.00 | 0.00 | 75 | 1023.5 |
| 20260507004252 | 57 | 213 | 3.0 | 7.0 | 0.00 | 0.00 | 0.00 | 75 | 1023.4 |
| 20260507003748 | 57 | 162 | 5.0 | 6.0 | 0.00 | 0.00 | 0.00 | 75 | 1023.4 |
| 20260507003243 | 57 | 190 | 5.0 | 7.0 | 0.00 | 0.00 | 0.00 | 75 | 1023.4 |
| 20260507002740 | 57 | 175 | 4.0 | 6.0 | 0.00 | 0.00 | 0.00 | 75 | 1023.4 |
| 20260507002236 | 57 | 195 | 5.0 | 9.0 | 0.00 | 0.00 | 0.00 | 76 | 1023.6 |
| 20260507001733 | 57 | 178 | 1.0 | 2.0 | 0.00 | 0.00 | 0.00 | 76 | 1023.3 |
| 20260507001230 | 57 | 189 | 3.0 | 9.0 | 0.00 | 0.00 | 0.00 | 76 | 1023.3 |
| 20260507000727 | 57 | 188 | 3.0 | 5.0 | 0.00 | 0.00 | 0.00 | 76 | 1023.5 |
| 20260507000222 | 57 | 203 | 6.0 | 11.0 | 0.00 | 0.00 | 0.00 | 76 | 1023.4 |
| 20260506235719 | 57 | 235 | 6.0 | 6.0 | 0.00 | 0.00 | 0.00 | 75 | 1023.3 |
| 20260506235214 | 57 | 189 | 2.0 | 5.0 | 0.00 | 0.00 | 0.00 | 76 | 1023.3 |
| 20260506234712 | 57 | 193 | 4.0 | 7.0 | 0.00 | 0.00 | 0.00 | 75 | 1023.4 |
| 20260506234209 | 57 | 222 | 3.0 | 5.0 | 0.00 | 0.00 | 0.00 | 74 | 1023.5 |
| 20260506233707 | 57 | 175 | 6.0 | 7.0 | 0.00 | 0.00 | 0.00 | 75 | 1023.3 |
| 20260506233203 | 57 | 190 | 4.0 | 8.0 | 0.00 | 0.00 | 0.00 | 75 | 1023.3 |
| 20260506232659 | 57 | 165 | 3.0 | 8.0 | 0.00 | 0.00 | 0.00 | 75 | 1023.2 |
| 20260506232154 | 58 | 172 | 3.0 | 5.0 | 0.00 | 0.00 | 0.00 | 75 | 1023.5 |
| 20260506231652 | 57 | 164 | 0.0 | 3.0 | 0.00 | 0.00 | 0.00 | 76 | 1023.3 |
| 20260506231150 | 57 | 158 | 2.0 | 6.0 | 0.00 | 0.00 | 0.00 | 75 | 1023.4 |